GFSNE_925_spd_117.txt.gz
Wind_Speed
32 31 31 26 26 28 29 28 21 6 9 18 17 40 44 42 37 35 35 34 35 35 34 34 33 32 32 32 32 31 30 29 28 28 27 27 27 28
31 30 29 26 27 28 31 31 29 23 8 28 29 27 45 41 39 33 33 34 32 33 32 31 31 31 32 32 31 31 31 31 30 30 29 29 29 29
31 29 28 25 25 25 25 27 29 27 11 10 21 27 31 40 37 36 30 32 31 32 33 31 30 31 32 31 30 30 29 29 28 29 29 30 28 28
29 27 26 23 24 27 27 29 29 28 21 12 17 25 24 33 34 29 27 27 23 24 25 24 26 27 29 29 27 28 28 28 29 29 27 26 27 28
30 26 25 22 24 25 27 26 28 25 25 14 14 21 22 28 24 23 17 13 21 24 21 21 23 25 26 28 28 28 27 27 26 25 24 25 22 19
25 25 21 25 25 25 27 28 27 25 25 20 16 18 19 22 29 22 17 21 19 19 18 16 15 18 19 20 23 23 19 20 19 18 15 12 12 11
20 24 25 26 25 25 27 27 26 25 21 20 15 13 16 14 24 26 23 25 19 19 17 15 14 14 12 13 14 14 13 13 13 13 14 12 11 9
23 22 23 21 21 23 32 34 35 31 25 25 21 20 21 22 22 22 18 12 5 20 22 17 16 15 15 13 12 13 12 13 13 12 12 11 10 9
12 16 19 19 18 21 25 31 32 33 29 27 26 25 24 28 27 24 26 24 17 22 28 15 16 17 15 16 15 15 15 14 13 12 11 10 8 7
9 1 7 11 14 19 20 22 20 22 23 24 25 22 23 23 34 34 32 26 17 26 29 7 21 18 18 16 14 14 14 13 12 11 10 9 8 6
23 22 11 3 2 6 16 19 15 11 7 9 14 19 21 24 27 31 27 24 5 8 20 13 16 21 18 16 13 12 14 12 10 8 7 6 5 6
26 24 27 17 9 2 7 12 15 9 11 10 8 9 7 7 10 12 18 16 10 6 13 8 27 14 7 12 16 13 13 13 9 7 6 5 5 4
25 25 30 23 22 15 8 11 13 13 15 16 18 18 19 18 14 10 9 13 14 8 15 13 15 13 9 9 12 14 12 10 7 5 3 2 3 4
22 25 23 26 24 25 26 22 21 20 21 23 25 23 23 28 28 26 23 22 19 20 16 11 13 12 11 9 6 13 11 8 5 4 4 2 0 0
23 22 24 26 26 27 23 22 23 24 25 26 23 23 19 24 27 28 28 28 30 26 19 16 21 17 13 12 9 10 12 5 5 4 4 4 3 1
19 24 27 29 29 27 27 28 26 24 24 22 21 21 17 18 23 21 24 25 30 28 24 21 21 17 22 16 16 14 9 6 4 4 4 4 2 2
14 17 20 21 23 24 25 25 24 23 21 19 16 15 15 13 16 14 15 17 19 17 19 20 22 22 21 16 15 10 9 7 5 4 3 2 1 1
15 16 17 17 18 16 16 16 20 19 16 15 13 11 12 11 12 13 14 14 15 14 14 12 14 16 15 17 12 9 7 6 4 3 2 3 3 4
16 14 14 14 14 14 14 13 14 15 14 14 12 11 10 10 10 12 12 12 14 14 12 9 6 5 5 6 8 9 6 4 3 4 4 5 6 7
15 14 13 13 12 12 11 12 12 12 13 12 12 10 10 10 11 12 11 11 10 10 11 11 10 8 7 5 7 7 8 6 5 6 6 7 8 7
12 12 11 11 11 11 10 11 11 13 12 12 12 11 10 10 12 11 11 11 9 8 8 8 6 9 8 8 9 7 4 6 5 5 7 6 6 3
10 10 9 9 9 9 8 8 8 10 10 10 10 10 10 10 10 9 9 9 9 8 8 6 5 5 5 5 6 4 2 5 5 5 2 2 3 4
9 8 8 8 9 9 8 8 9 9 9 9 8 8 8 9 9 9 9 9 8 8 7 7 6 6 7 6 5 4 4 6 6 5 2 8 5 7

GFSNE_925_spd_123.txt.gz
Wind_Speed
29 28 28 26 23 24 23 23 17 9 10 16 17 21 22 30 35 35 36 47 45 42 41 45 42 39 36 34 33 34 33 32 31 30 29 28 28 27
25 24 26 25 24 25 24 24 23 20 12 19 16 19 20 27 31 36 40 41 46 45 42 44 45 41 39 37 34 35 35 34 33 32 31 31 30 30
24 23 33 30 24 25 27 27 25 25 14 23 20 20 21 25 28 34 37 40 45 47 43 42 47 45 42 41 39 37 37 36 36 35 34 32 33 31
28 28 41 31 29 30 28 29 27 26 21 15 20 19 23 27 33 34 37 39 40 39 43 41 42 46 44 41 41 40 40 38 38 37 37 34 36 34
28 30 34 29 30 30 31 28 26 25 23 20 26 20 20 22 27 30 33 35 34 35 30 35 36 37 42 42 41 40 39 39 38 37 37 35 38 35
25 31 29 28 28 29 28 28 28 25 24 21 17 16 17 20 25 23 20 25 24 27 31 28 28 29 35 39 40 39 39 39 39 38 38 37 38 33
18 21 31 33 34 33 28 24 24 21 22 15 15 14 15 13 19 19 22 22 24 29 25 23 23 25 27 32 38 38 38 39 38 40 38 36 34 31
17 17 12 10 20 27 30 29 25 20 19 16 16 13 20 21 21 23 19 10 4 22 26 19 19 20 20 22 25 30 31 27 26 30 32 32 29 25
21 21 16 15 14 12 16 26 28 27 29 25 23 22 22 27 24 22 24 24 20 24 26 15 19 18 16 17 16 19 20 19 20 23 27 28 29 34
25 26 23 22 20 17 14 12 11 12 12 17 20 16 18 20 27 30 32 24 15 21 27 6 17 13 15 14 14 17 20 23 26 29 29 28 27 26
27 30 30 26 23 16 9 3 3 5 5 6 5 5 8 16 22 27 23 20 3 10 26 16 17 18 16 19 17 19 21 23 23 23 22 22 21 20
27 31 33 29 24 18 13 5 6 7 7 7 7 7 5 5 3 6 11 17 10 4 21 16 21 15 7 15 19 20 20 18 20 21 21 20 18 18
23 25 27 27 26 24 20 17 11 7 9 11 14 15 14 16 14 10 5 1 5 3 17 23 18 16 8 11 16 21 24 22 19 16 17 20 18 15
19 22 23 22 25 27 25 20 16 16 16 21 23 22 22 23 19 20 17 13 10 8 16 16 10 18 11 8 8 18 19 19 19 19 19 20 17 15
18 18 18 22 21 23 26 23 22 21 20 21 19 18 21 18 19 23 21 22 20 16 8 4 12 17 15 15 13 18 18 12 12 12 12 13 12 11
16 17 17 17 19 21 22 24 23 22 19 16 15 14 15 17 19 17 17 21 25 28 23 17 16 18 20 23 25 20 21 9 14 12 11 9 9 9
16 14 17 17 18 19 19 20 21 19 17 17 15 15 15 14 16 16 17 18 18 17 21 28 30 31 29 25 23 20 19 20 14 14 11 7 6 6
14 15 16 16 16 15 15 15 16 16 15 13 13 13 14 13 12 14 16 16 14 13 13 17 21 25 25 27 21 19 18 17 13 11 8 10 11 10
15 14 15 16 16 15 15 14 13 13 12 12 12 12 10 10 10 11 12 12 12 11 10 9 8 9 6 5 8 15 14 13 12 11 9 7 7 10
14 14 14 14 14 14 14 14 13 13 12 12 12 11 11 10 9 10 9 8 8 8 8 8 10 10 9 4 6 8 10 8 7 8 8 5 6 7
14 13 13 13 13 13 11 11 10 10 11 11 11 11 10 9 9 8 8 8 5 6 7 7 6 9 13 13 11 7 7 5 6 4 2 3 6 8
12 12 11 11 11 11 11 11 12 11 11 11 9 9 9 8 8 8 7 6 6 6 6 6 4 5 4 5 13 11 8 4 5 6 5 4 2 3
12 11 11 10 10 11 11 10 10 10 10 10 10 10 9 9 8 7 7 7 6 5 4 5 5 5 6 7 8 8 6 4 2 1 2 7 7 4

GFSNE_925_spd_129.txt.gz
Wind_Speed
33 32 31 28 27 27 28 22 9 5 6 16 16 29 33 34 33 31 31 31 32 33 35 37 42 45 47 46 43 41 40 39 40 38 35 34 34 32
31 31 34 31 28 32 31 22 7 6 6 16 22 25 30 35 33 31 30 29 29 32 33 37 39 44 46 49 47 46 42 42 40 40 40 39 36 34
29 30 30 31 26 30 27 29 21 25 15 30 29 31 23 32 34 34 33 31 30 31 35 36 40 42 47 48 50 51 48 45 44 42 41 41 39 36
2 14 20 26 26 29 25 17 22 25 26 23 20 23 22 30 33 34 37 35 33 34 34 36 37 39 44 50 52 52 53 49 47 45 43 43 41 41
14 14 14 12 7 7 14 21 23 26 29 21 24 22 28 28 30 30 35 34 32 31 29 30 31 35 39 44 50 52 52 53 49 48 45 43 43 43
19 17 17 18 16 15 14 13 14 19 24 22 22 22 23 26 30 24 25 31 30 32 32 31 30 35 37 40 45 53 52 52 52 48 47 46 43 43
27 22 21 22 18 15 14 16 17 17 16 18 18 17 16 16 21 19 24 22 26 31 32 30 34 38 39 41 42 44 53 50 50 50 50 48 46 44
31 28 24 26 24 19 14 14 13 15 11 9 13 20 31 22 22 22 20 13 4 28 32 34 33 35 36 38 41 44 46 53 50 49 50 49 48 47
34 34 31 31 28 22 17 15 15 16 16 12 10 9 13 16 10 14 22 20 22 19 25 22 29 29 28 29 33 36 43 47 46 48 50 50 49 47
30 31 29 29 31 24 19 18 19 18 18 15 12 11 8 15 15 16 20 19 19 23 27 10 19 19 21 20 21 22 26 37 45 45 47 47 45 44
25 27 29 30 28 27 26 23 22 22 16 12 10 9 11 10 13 11 11 10 5 8 28 18 14 12 12 12 12 9 13 16 20 31 38 38 39 37
26 28 29 28 28 28 26 24 22 24 21 20 19 17 15 14 14 12 11 7 6 4 7 9 14 13 4 9 12 11 10 11 13 15 19 23 31 30
22 24 26 25 25 26 24 23 20 19 21 21 21 21 21 22 21 19 14 11 7 5 7 11 4 7 5 8 8 14 14 16 19 21 25 29 30 32
22 23 21 21 22 25 24 21 21 21 21 21 21 20 21 22 18 17 15 14 10 8 7 5 4 13 7 2 6 14 17 19 21 21 21 21 23 26
19 18 17 19 20 22 25 23 24 23 22 18 17 17 18 16 15 16 12 12 15 15 12 4 4 9 12 12 9 13 20 15 19 21 19 18 19 18
17 16 18 19 21 20 22 24 23 22 22 20 19 19 17 18 18 17 19 8 18 22 21 14 7 4 6 7 12 16 19 9 21 20 19 18 18 17
14 18 23 25 25 25 24 24 23 23 22 21 20 18 18 18 17 16 16 15 14 15 18 25 22 18 18 15 15 15 14 18 17 17 17 16 15 17
23 24 24 22 21 23 23 21 21 22 19 17 18 17 16 15 15 15 14 15 13 15 14 12 12 13 18 26 17 19 17 19 17 18 19 17 16 13
21 20 22 21 18 18 20 21 19 19 16 17 17 18 15 14 13 13 12 12 12 13 14 11 9 11 7 6 14 13 14 15 17 16 14 12 13 14
20 18 18 19 18 18 20 21 20 19 18 18 20 19 17 15 16 18 16 6 8 10 11 14 11 11 7 3 6 17 11 13 14 13 13 13 13 11
19 19 18 18 19 19 20 20 19 18 18 18 18 20 20 16 16 16 15 13 10 9 8 11 12 8 15 17 9 9 14 10 10 11 12 13 10 9
16 17 17 16 17 18 19 18 17 18 19 18 19 20 21 17 16 16 14 15 12 5 7 7 2 4 5 7 10 10 10 12 11 9 8 4 4 5
14 13 15 17 18 16 16 17 17 17 18 16 17 20 20 19 15 11 12 13 14 15 12 10 12 14 11 14 15 11 13 12 12 13 12 9 7 7

GFSNE_925_spd_132.txt.gz
Wind_Speed
33 33 30 30 30 30 28 24 10 4 4 8 13 18 31 39 38 36 38 36 34 35 37 38 39 41 47 48 46 45 43 43 43 43 41 40 39 39
30 32 33 28 30 29 30 30 27 14 3 18 19 21 17 24 37 39 42 39 36 34 36 38 39 40 43 48 51 50 48 46 45 45 44 43 41 40
29 30 30 30 27 29 28 26 23 22 8 11 15 15 21 23 27 29 35 41 38 36 35 35 38 41 43 44 48 53 52 51 49 47 46 46 44 42
13 18 14 17 20 15 21 24 26 22 17 17 21 22 28 30 36 36 36 36 38 41 36 36 36 37 41 44 47 49 53 55 55 51 50 49 47 47
19 19 15 10 9 3 1 5 5 18 25 19 19 22 25 26 27 31 33 36 43 41 42 37 36 37 39 42 46 49 50 55 57 56 54 53 50 48
27 26 24 17 13 9 7 5 3 6 7 13 21 19 21 25 28 25 23 32 34 40 43 40 38 36 36 37 39 42 46 49 55 57 58 57 54 52
31 26 24 22 23 15 11 10 8 7 8 9 11 10 14 13 17 25 26 27 29 34 37 38 35 34 37 41 41 40 40 43 45 52 58 60 57 54
28 24 33 30 24 22 18 18 16 14 9 5 5 5 7 11 14 17 15 19 5 24 33 28 33 36 38 40 39 38 40 41 45 43 44 58 59 56
35 32 34 35 26 19 15 18 17 17 15 9 6 7 7 12 15 20 13 12 5 4 20 21 30 33 34 36 37 38 38 41 41 43 45 47 57 57
33 31 28 27 29 23 21 22 21 18 16 12 11 9 8 12 12 13 19 20 23 24 18 9 25 29 30 29 29 31 34 36 38 41 41 42 53 51
30 31 34 32 29 23 25 21 22 21 17 15 12 11 10 11 14 12 12 10 4 3 5 9 9 12 14 19 21 23 25 26 29 33 39 41 46 50
26 28 28 28 24 23 23 20 17 21 18 16 14 13 13 14 16 15 12 7 6 4 11 8 3 5 2 7 10 13 14 14 15 16 20 26 30 36
21 23 24 21 23 23 23 21 18 15 15 15 16 17 17 17 15 14 13 12 7 4 10 14 6 5 3 0 3 3 4 5 6 6 9 13 19 26
24 24 22 21 20 23 25 23 20 19 20 17 16 18 17 19 16 10 7 5 8 8 12 8 7 6 3 2 3 5 7 7 7 9 9 13 19 22
21 21 19 22 23 24 24 24 23 23 18 15 15 18 17 15 15 11 8 8 10 12 12 9 7 8 8 4 4 6 8 7 9 10 10 11 16 19
20 20 20 19 21 22 23 24 24 22 20 20 19 17 16 17 17 15 15 11 11 18 18 16 11 3 1 2 4 9 9 7 13 12 12 11 12 13
18 21 25 27 26 26 25 24 25 23 23 22 21 19 18 17 17 15 14 13 14 12 15 17 19 16 14 8 10 11 7 11 14 13 13 13 10 9
22 24 24 25 21 20 20 21 22 25 24 21 21 20 20 19 17 14 13 11 12 12 11 10 7 4 7 19 13 11 10 11 10 11 14 16 13 11
23 20 24 24 20 20 21 21 21 23 22 21 21 21 22 20 19 17 14 8 10 11 13 9 7 3 2 2 7 10 11 13 15 13 12 12 15 15
22 20 17 20 21 20 23 22 21 23 23 22 22 21 21 20 20 19 16 11 9 9 9 9 8 6 2 2 4 14 8 13 15 15 15 16 16 17
17 17 15 15 17 18 19 19 19 20 21 21 20 20 20 20 20 18 16 12 10 8 7 9 8 6 11 11 7 7 14 8 12 14 16 16 9 8
11 13 13 15 18 18 18 19 20 22 21 20 18 19 19 18 16 16 15 15 14 12 9 4 2 1 0 4 5 7 9 13 12 10 8 5 4 3
11 13 14 15 16 17 18 17 19 19 19 16 15 17 18 18 15 14 14 14 14 13 10 4 5 5 5 9 11 8 11 11 12 13 13 9 8 6

GFSNE_925_spd_135.txt.gz
Wind_Speed
37 36 32 29 33 35 28 25 12 5 6 11 19 24 28 34 38 36 36 34 33 32 31 32 34 36 40 43 44 44 44 44 44 44 45 45 44 43
30 34 31 28 32 33 32 29 24 15 6 20 26 21 20 24 29 34 35 33 33 33 33 34 34 37 38 39 43 47 47 47 47 48 48 48 47 46
27 28 27 27 26 28 29 29 26 23 10 10 17 17 19 19 21 23 23 24 24 30 31 32 34 35 37 39 40 42 46 51 52 51 52 49 49 48
5 16 14 21 20 26 25 25 27 28 21 11 12 14 21 28 28 27 24 24 29 34 34 34 35 36 36 36 39 41 43 44 50 55 55 52 52 51
24 20 12 10 9 5 5 17 15 21 27 19 18 22 29 28 21 23 26 26 30 32 34 34 36 35 38 36 34 36 39 42 45 49 56 58 57 56
32 32 30 20 14 8 6 7 2 3 5 8 16 20 23 22 21 20 21 26 31 34 38 42 39 39 39 39 36 36 39 41 45 47 50 52 60 61
35 35 32 25 26 27 18 20 17 10 6 4 7 2 4 5 5 8 9 15 24 31 31 36 39 39 37 36 35 36 36 38 37 41 44 46 50 54
34 37 32 25 9 26 26 25 22 14 13 4 8 7 7 7 12 12 12 6 3 8 21 31 34 34 34 31 32 33 33 36 38 41 45 46 45 44
37 34 35 32 31 27 26 26 21 24 21 17 13 11 8 14 14 15 7 7 8 17 24 13 19 30 31 29 29 30 31 35 38 40 42 41 41 40
30 29 26 30 31 25 25 23 26 26 22 17 14 11 12 13 12 12 15 16 20 16 9 6 13 19 23 24 25 27 32 34 35 37 38 38 38 40
30 32 34 33 29 23 24 24 26 24 17 12 8 7 7 10 16 15 17 12 4 3 9 7 6 13 17 19 19 20 25 26 27 29 31 34 36 35
26 29 29 28 27 27 25 21 19 21 17 14 12 12 14 15 13 14 14 10 7 5 11 18 8 7 6 7 12 14 16 18 19 21 21 23 28 28
24 24 29 27 26 26 26 26 20 17 19 18 18 22 22 21 20 13 10 9 8 6 12 17 9 9 6 7 9 10 10 12 13 12 12 13 14 15
26 24 24 24 23 23 24 22 22 23 21 21 20 25 26 25 22 16 10 6 5 9 15 10 8 11 9 6 5 7 8 8 9 8 6 4 5 5
22 21 20 21 22 24 24 25 26 26 26 25 24 24 22 21 18 17 13 5 6 9 12 12 10 14 12 10 7 5 5 4 3 3 2 3 5 7
22 23 23 24 24 25 26 27 26 25 23 23 23 21 21 22 21 21 19 18 11 11 13 14 13 9 9 8 9 8 5 3 2 3 4 4 5 7
24 27 31 28 29 30 29 28 27 27 28 25 24 24 23 23 24 21 19 16 13 15 18 13 9 13 9 5 3 1 3 2 5 5 6 9 7 6
33 30 31 31 24 23 24 24 25 26 26 24 23 22 20 21 22 22 22 17 15 17 18 20 16 11 5 6 9 3 3 7 6 5 8 13 11 8
27 26 25 26 22 19 20 20 20 23 23 23 22 23 23 20 20 20 22 20 17 19 18 17 14 9 2 2 3 7 3 8 9 8 8 10 11 11
23 22 20 20 22 22 23 23 24 26 25 24 23 23 22 21 19 20 22 20 19 16 17 16 14 12 4 2 2 10 6 8 11 13 15 17 16 13
15 16 17 18 18 18 19 20 22 24 24 23 20 19 21 20 19 18 20 20 19 15 14 15 13 6 7 4 1 4 15 9 7 12 16 15 10 7
16 16 17 17 18 17 19 19 19 22 24 23 20 17 17 18 16 17 18 18 18 17 18 13 11 7 7 2 1 1 5 10 12 11 10 6 4 3
13 13 15 16 18 19 19 21 20 22 23 23 21 17 16 18 17 16 17 17 17 18 17 18 10 4 1 2 3 2 7 8 9 13 16 15 9 7

GFSNE_925_spd_138.txt.gz
Wind_Speed
29 28 33 33 35 37 33 29 11 4 6 8 13 18 28 31 33 32 32 31 30 29 28 28 29 30 33 36 38 40 40 41 42 43 42 40 41 41
32 26 30 30 34 35 34 35 29 18 6 20 23 21 22 26 29 30 29 28 30 30 30 29 28 29 31 34 37 40 42 42 43 44 45 44 44 44
12 10 22 32 27 32 33 30 28 22 11 14 15 17 23 21 21 20 19 22 25 27 29 30 28 30 32 35 36 38 41 43 43 44 47 47 47 47
13 4 7 12 7 14 24 27 26 27 19 11 16 20 23 24 21 18 19 24 25 23 22 21 22 24 26 32 35 38 40 41 42 44 45 48 51 53
32 32 25 15 23 11 5 9 15 16 18 18 14 21 26 22 23 25 24 21 25 30 28 29 27 25 27 29 34 35 36 39 41 41 44 46 48 54
44 43 41 40 29 19 18 13 7 5 4 4 15 15 17 19 15 12 16 20 21 25 25 24 25 29 33 33 33 35 35 36 37 37 37 41 43 45
46 44 41 37 34 35 32 26 19 12 9 14 9 11 11 9 9 11 4 10 7 10 17 22 25 27 27 32 32 35 35 35 35 36 35 37 39 42
36 36 39 38 35 34 32 32 36 29 24 10 9 10 13 14 15 10 7 7 3 5 13 15 15 18 26 29 33 29 29 31 31 31 32 35 38 40
35 39 42 41 34 32 34 34 32 30 31 20 19 19 15 18 13 11 9 5 6 19 21 13 17 21 18 18 21 23 21 21 25 29 30 33 36 38
38 39 39 42 33 29 30 32 35 28 25 21 20 18 12 10 16 10 8 9 13 3 13 4 12 16 16 16 17 16 19 21 25 27 30 33 35 38
39 42 40 38 32 31 29 27 29 29 22 18 16 18 17 16 16 18 19 13 3 6 14 12 8 17 18 18 16 17 17 19 21 22 25 27 29 30
32 33 33 31 30 29 30 26 23 24 24 22 23 22 22 23 22 18 15 11 6 3 13 17 8 11 9 5 10 12 13 14 17 18 20 20 21 22
26 28 31 29 29 28 27 27 23 20 22 22 22 24 25 25 25 19 14 9 6 4 11 17 9 9 5 8 14 19 18 15 15 14 15 17 19 17
27 24 26 26 26 27 27 25 23 24 25 25 25 27 27 26 22 19 16 9 6 9 14 12 6 10 10 9 9 12 17 18 14 11 11 10 11 12
26 24 26 28 28 28 26 28 30 30 29 26 25 25 23 22 21 20 16 15 6 6 11 13 13 15 13 11 12 12 15 9 14 9 8 7 6 5
29 30 30 30 31 31 32 31 29 29 27 23 21 23 23 23 23 24 23 20 15 16 14 13 13 15 11 12 13 13 13 7 10 7 5 4 4 4
25 30 35 34 31 32 31 31 30 30 30 27 25 25 24 24 23 22 22 19 15 17 21 20 16 12 12 12 10 11 11 9 7 5 3 2 5 5
30 34 31 29 23 20 22 22 24 26 25 24 24 23 23 23 22 22 22 22 17 17 17 20 19 16 6 5 6 10 8 7 5 3 2 2 5 4
27 25 25 25 21 19 20 18 19 23 21 21 17 16 16 16 18 16 17 16 17 17 17 17 14 11 4 3 4 10 11 7 4 2 2 1 1 4
25 24 22 21 21 20 21 23 23 24 24 24 22 20 18 14 15 14 15 17 16 15 16 16 12 10 5 4 4 5 11 6 3 1 3 10 12 9
23 22 22 21 20 19 19 21 23 25 27 29 28 25 21 18 19 17 16 20 18 14 16 17 19 15 13 10 4 2 6 12 3 3 7 5 4 4
19 18 16 17 18 20 21 23 25 25 27 29 29 26 24 20 17 18 17 17 17 16 17 22 22 14 7 5 5 3 1 5 9 8 7 3 1 2
20 19 17 16 15 15 15 16 17 18 20 24 26 25 24 22 20 18 17 16 17 19 18 19 20 11 6 3 1 0 2 3 4 12 16 13 6 5

GFSNE_925_spd_141.txt.gz
Wind_Speed
31 30 22 24 25 30 31 29 17 8 10 15 11 24 30 27 29 33 34 32 32 31 31 31 33 33 33 35 36 38 38 38 39 40 41 41 40 39
27 28 23 17 21 29 31 32 30 21 9 20 19 15 23 25 26 31 29 33 33 31 30 32 33 34 34 34 35 38 40 39 41 41 43 43 43 42
13 17 22 19 16 21 32 33 34 30 12 11 15 24 19 20 21 22 22 25 28 28 26 29 32 34 35 35 35 36 39 40 42 43 44 44 45 45
8 5 4 11 16 7 9 22 28 31 29 14 13 14 17 20 20 21 22 20 21 21 22 23 26 32 34 34 35 36 38 39 41 43 45 44 44 46
21 19 15 9 7 9 5 9 4 8 19 25 10 14 17 16 14 14 13 14 14 19 21 21 19 21 24 26 28 30 33 39 40 42 44 44 44 45
31 31 35 29 25 18 17 14 9 7 5 4 8 3 4 5 6 3 5 8 10 14 16 19 22 21 22 23 26 27 28 30 37 41 42 43 43 44
36 31 35 36 41 40 34 29 25 16 12 17 15 7 9 11 8 6 1 6 4 2 8 7 11 13 14 15 19 20 20 25 30 35 40 41 40 40
35 37 37 40 35 40 44 46 39 26 29 22 16 13 15 10 13 12 4 4 2 10 20 9 6 5 6 7 14 17 19 19 23 28 33 36 38 34
41 35 46 40 37 37 37 41 43 40 36 29 24 21 13 19 16 11 10 4 1 12 15 7 9 6 6 7 9 11 15 18 21 22 22 23 25 27
41 39 41 42 39 31 31 36 34 38 35 30 29 25 24 19 16 6 10 11 10 6 15 4 15 16 14 10 11 11 12 13 14 16 17 19 21 24
39 45 45 42 38 35 31 27 27 31 24 25 24 24 24 24 21 16 23 16 6 7 19 10 8 16 13 9 7 11 12 12 12 11 13 14 16 19
36 37 36 34 33 33 30 25 24 24 24 24 24 24 24 25 23 21 14 11 6 1 11 12 9 10 6 5 12 15 17 14 14 14 14 16 15 18
29 30 31 29 30 30 30 30 23 18 21 20 20 21 22 23 23 18 17 7 5 3 10 9 4 8 6 8 12 11 12 21 21 19 18 16 16 15
26 24 25 25 25 27 27 27 25 22 19 20 20 20 20 20 19 18 16 14 5 4 8 9 4 7 7 8 8 15 18 15 12 15 14 13 13 13
26 25 24 27 25 25 26 27 26 22 19 19 18 18 18 17 16 17 15 14 8 5 12 9 8 8 6 7 11 16 18 10 13 10 11 10 9 9
24 23 22 21 24 24 27 27 26 23 20 19 17 17 16 17 16 16 15 16 11 10 12 11 12 9 11 10 11 14 12 10 14 12 10 9 10 10
19 21 23 22 22 24 24 24 24 24 24 22 20 19 19 19 19 17 16 15 14 14 16 13 14 13 12 12 11 10 12 12 11 11 9 9 6 7
16 17 17 17 18 20 21 21 22 22 22 21 20 19 18 18 19 16 15 15 15 16 16 17 16 16 12 6 7 9 12 12 11 9 8 8 7 5
17 18 18 18 17 16 17 17 18 18 18 18 17 18 17 17 17 17 16 15 15 15 15 14 14 13 8 7 7 7 11 14 12 10 8 8 7 4
15 15 15 16 15 15 16 16 16 17 18 19 18 17 17 16 15 15 16 16 17 17 17 16 13 13 14 9 11 14 11 11 11 11 8 4 0 1
16 15 13 12 10 10 9 10 12 16 17 18 18 18 17 16 15 15 16 17 18 16 17 16 17 20 16 14 10 12 8 8 6 7 5 6 3 2
16 16 15 14 13 13 14 15 18 17 16 17 18 19 19 17 16 17 16 18 17 17 19 21 19 16 14 12 13 13 10 7 6 4 3 6 5 3
17 18 18 17 15 15 15 15 15 17 18 18 19 18 17 15 15 15 16 16 17 18 18 20 20 15 13 11 10 9 6 4 3 3 9 6 3 5

GFSNE_925_spd_147.txt.gz
Wind_Speed
27 33 34 28 30 27 24 24 12 13 17 30 24 37 36 39 37 40 38 38 40 40 42 44 46 44 43 42 40 39 38 38 39 40 41 41 40 39
12 12 14 22 28 26 24 25 24 18 12 28 33 27 36 34 38 39 39 39 41 43 43 44 44 44 43 43 42 40 40 39 39 40 42 42 42 42
24 21 19 18 17 11 12 22 25 27 12 21 22 25 25 33 32 39 36 36 39 39 43 45 44 44 44 43 42 41 41 41 41 41 42 42 43 43
29 32 35 26 24 21 16 21 17 19 18 12 12 21 19 21 34 33 36 33 31 36 40 41 44 43 43 42 41 41 41 42 42 42 43 44 44 44
32 31 37 34 33 25 21 18 20 20 17 19 15 17 13 19 28 30 26 26 23 20 22 30 34 36 40 39 38 39 40 42 43 43 43 44 45 45
42 41 38 40 39 31 27 23 21 19 15 10 5 5 2 4 10 27 15 15 16 18 12 13 11 15 17 20 22 25 28 31 36 41 43 44 43 44
40 38 40 37 39 40 37 36 29 25 18 18 17 13 11 12 8 20 10 9 20 15 14 15 11 9 7 11 14 20 23 26 29 31 32 34 36 37
38 38 40 38 34 35 38 45 48 34 29 21 16 18 23 14 11 16 15 7 1 20 9 15 12 12 7 7 6 1 7 18 20 20 20 26 30 34
38 36 37 39 37 33 34 38 44 42 38 25 25 28 18 26 19 23 22 10 10 25 8 12 16 14 11 10 8 6 5 5 1 5 5 7 15 22
38 36 35 39 36 30 28 32 34 34 32 30 31 31 34 29 24 22 19 8 13 26 18 6 19 13 11 10 13 13 13 11 8 7 3 7 11 11
32 38 37 37 36 30 27 27 28 32 27 27 30 31 32 32 30 25 29 18 7 10 30 9 16 13 9 11 12 13 13 17 17 15 12 11 13 16
28 31 34 36 35 35 31 27 25 26 25 27 31 31 32 30 32 31 24 16 11 7 22 13 14 15 6 6 15 12 18 20 18 14 15 12 14 16
26 27 31 31 34 33 33 33 28 23 23 25 25 26 29 29 29 30 26 19 12 10 17 12 12 13 7 8 14 12 23 22 13 17 14 13 14 13
24 24 25 27 27 32 33 29 28 26 24 23 23 25 25 25 25 25 23 19 13 13 18 17 7 11 9 9 7 19 20 15 15 14 20 17 13 11
18 19 20 22 24 26 28 30 31 30 28 27 26 26 26 23 22 22 18 20 15 14 15 15 13 10 9 10 12 17 19 14 10 22 20 19 20 15
17 18 18 19 21 22 25 27 29 28 27 25 24 23 23 24 24 23 21 20 16 15 15 15 9 14 12 12 14 15 15 10 22 18 19 20 17 15
13 16 19 20 20 22 22 23 25 25 24 24 24 24 25 24 24 22 20 18 16 16 17 17 16 17 16 18 14 11 10 13 13 19 23 20 18 16
13 15 16 17 18 19 20 21 21 23 24 23 24 24 24 23 23 21 20 19 18 18 18 19 20 18 17 13 6 11 14 16 17 18 20 18 17 14
16 16 16 17 17 17 18 18 19 19 19 19 20 21 22 21 21 21 21 20 20 19 20 19 19 18 8 8 22 17 18 21 19 17 17 20 20 16
14 15 16 16 16 15 14 13 13 14 15 17 17 18 20 20 20 20 20 20 21 22 20 19 18 19 17 12 19 27 22 21 16 14 18 19 23 21
15 15 15 15 15 15 14 11 10 11 12 14 14 16 17 19 19 19 20 20 21 19 19 19 21 23 23 22 16 17 20 18 13 10 13 15 17 19
15 15 15 15 15 15 16 17 15 13 12 12 13 14 16 18 19 20 20 21 21 21 22 23 22 23 22 21 18 21 19 19 15 18 18 11 9 6
14 15 15 15 15 15 16 16 16 16 13 10 12 15 16 18 19 19 20 20 21 22 22 24 24 23 22 23 23 21 23 21 15 13 9 7 8 9

GFSNE_925_spd_150.txt.gz
Wind_Speed
18 18 19 27 32 31 31 25 7 7 9 11 16 24 34 33 44 48 45 46 48 49 48 50 50 48 47 46 45 44 42 40 40 40 40 40 39 38
15 15 9 12 12 15 26 28 25 14 8 16 22 30 42 36 44 46 49 49 48 51 50 47 48 48 49 48 46 44 43 41 40 40 40 41 41 40
30 24 20 16 14 8 6 7 6 17 10 16 21 19 32 32 37 41 48 48 50 51 51 48 47 49 50 50 48 45 45 43 41 40 40 40 40 41
30 29 30 25 23 21 14 14 11 9 6 6 17 23 23 20 24 12 15 28 46 52 54 52 48 48 49 49 48 46 45 44 42 41 41 40 40 41
32 33 34 34 35 30 26 24 22 14 12 8 9 7 7 7 5 7 12 28 32 15 54 53 48 46 47 48 48 46 45 43 43 41 41 41 42 42
39 37 36 40 44 32 34 31 26 23 22 20 13 11 9 9 13 8 16 10 10 28 10 30 29 28 28 31 34 37 39 39 40 40 41 41 42 43
38 40 40 37 41 42 44 39 33 28 26 22 22 18 16 15 17 15 2 18 21 15 20 29 23 20 17 13 10 14 21 27 30 33 35 35 36 36
36 38 41 42 38 39 38 43 45 35 32 27 23 19 22 23 22 19 8 4 2 22 18 26 26 27 23 22 19 17 13 7 5 14 22 28 30 33
40 40 40 43 42 35 36 37 38 39 40 32 29 31 28 31 26 20 23 20 13 17 12 17 26 23 25 26 26 26 23 19 15 12 7 1 9 16
37 40 40 41 41 35 31 33 36 38 38 36 34 32 35 37 29 20 13 18 23 31 13 4 21 17 22 24 24 24 24 23 19 15 14 12 9 5
33 36 37 38 38 35 34 31 32 35 29 28 29 30 33 37 34 28 30 13 9 17 31 8 17 8 16 24 22 22 22 23 20 20 17 17 16 14
29 32 35 37 37 38 37 33 31 32 30 30 35 35 38 36 36 35 30 20 14 11 26 9 15 12 4 12 16 21 22 21 16 18 16 19 18 18
26 28 32 31 35 36 36 35 30 27 28 29 30 33 34 34 36 33 33 25 23 15 24 11 18 14 9 8 9 21 23 16 19 15 19 18 18 15
24 25 25 28 30 32 34 31 30 29 29 29 30 31 32 32 34 32 31 24 22 22 21 25 14 18 13 7 9 21 22 13 14 25 19 19 19 13
19 21 21 23 25 28 30 32 33 31 29 28 28 28 29 29 28 30 31 28 23 24 24 22 18 21 17 13 11 13 17 16 16 18 20 22 18 17
19 15 18 18 22 25 25 28 29 29 26 25 25 25 27 30 29 29 27 27 21 23 23 22 22 21 21 19 17 16 13 8 17 18 23 23 18 14
16 14 17 18 18 20 23 23 26 27 25 25 25 27 27 27 27 27 27 25 22 22 23 27 26 21 17 17 13 20 19 17 19 23 23 23 21 19
19 19 19 20 19 17 18 18 18 19 22 22 23 25 25 24 24 24 24 24 23 23 22 24 24 20 19 12 18 24 22 22 23 22 19 17 20 23
19 19 20 21 21 20 18 16 16 17 19 19 20 20 22 22 24 24 24 23 21 22 21 22 22 20 9 8 22 19 23 27 26 22 20 15 17 28
19 19 19 20 20 21 22 23 15 14 17 18 20 21 25 22 21 21 22 24 25 24 24 24 24 25 21 13 20 29 24 23 20 20 16 19 23 22
18 18 19 19 20 20 21 22 21 20 13 12 14 17 22 23 21 22 22 23 23 21 21 23 26 28 25 25 20 20 25 26 21 19 19 15 17 17
17 17 18 18 18 19 20 21 21 22 22 13 11 14 17 19 20 21 22 22 22 22 22 24 25 27 25 23 21 23 26 30 30 25 20 19 12 4
16 16 16 17 17 18 18 19 19 20 21 17 12 14 16 18 18 20 21 22 21 21 22 24 26 25 23 24 25 23 26 28 28 27 26 17 14 15